QPF
0.01 0.03 0.04 0.02 0.02 0.03 0.04 0.02 0.02 0.05 0.06 0.05 0.05 0.06 0.06 0.05 0.05 0.05 0.05 0.06 0.07 0.08 0.09 0.10 0.13 0.20 0.26 0.36 0.40 0.39 0.37 0.41 0.46 0.36 0.25 0.19 0.14 0.14 0.12 0.09 0.07 0.06 0.05 0.04
0.01 0.02 0.02 0.01 0.02 0.03 0.03 0.02 0.02 0.03 0.05 0.05 0.05 0.05 0.05 0.05 0.04 0.04 0.05 0.04 0.04 0.05 0.05 0.07 0.10 0.13 0.17 0.26 0.36 0.41 0.43 0.45 0.50 0.46 0.36 0.28 0.25 0.23 0.21 0.19 0.15 0.13 0.10 0.06
0.00 0.01 0.01 0.02 0.02 0.03 0.03 0.02 0.02 0.03 0.05 0.04 0.04 0.04 0.03 0.03 0.03 0.03 0.03 0.04 0.03 0.03 0.03 0.04 0.06 0.09 0.12 0.15 0.23 0.33 0.39 0.43 0.48 0.52 0.53 0.51 0.44 0.34 0.27 0.25 0.24 0.22 0.19 0.14
0.01 0.01 0.02 0.03 0.02 0.02 0.02 0.01 0.01 0.02 0.04 0.04 0.04 0.05 0.03 0.02 0.02 0.01 0.02 0.03 0.02 0.01 0.02 0.03 0.04 0.06 0.09 0.11 0.16 0.23 0.31 0.38 0.43 0.46 0.50 0.50 0.44 0.35 0.28 0.27 0.28 0.28 0.26 0.23
0.01 0.01 0.03 0.05 0.04 0.02 0.01 0.01 0.01 0.02 0.02 0.02 0.03 0.03 0.02 0.02 0.02 0.01 0.01 0.02 0.02 0.01 0.01 0.02 0.03 0.04 0.06 0.09 0.13 0.18 0.26 0.31 0.36 0.39 0.38 0.41 0.42 0.39 0.36 0.33 0.30 0.27 0.25 0.23
0.01 0.01 0.02 0.04 0.05 0.03 0.01 0.01 0.01 0.02 0.02 0.02 0.01 0.01 0.01 0.01 0.01 0.01 0.01 0.01 0.01 0.01 0.01 0.01 0.02 0.03 0.04 0.06 0.09 0.13 0.22 0.30 0.32 0.34 0.34 0.36 0.37 0.37 0.36 0.34 0.30 0.28 0.25 0.21
0.02 0.02 0.02 0.03 0.04 0.03 0.02 0.02 0.02 0.03 0.02 0.02 0.01 0.01 0.01 0.00 0.01 0.01 0.01 0.01 0.01 0.01 0.01 0.01 0.01 0.02 0.02 0.04 0.06 0.08 0.11 0.17 0.23 0.29 0.33 0.32 0.34 0.34 0.30 0.29 0.29 0.30 0.28 0.22
0.03 0.04 0.02 0.01 0.02 0.03 0.02 0.02 0.01 0.01 0.02 0.02 0.01 0.01 0.00 0.00 0.00 0.00 0.01 0.01 0.01 0.01 0.00 0.00 0.00 0.01 0.02 0.02 0.04 0.05 0.07 0.07 0.10 0.15 0.18 0.20 0.24 0.26 0.25 0.23 0.21 0.21 0.21 0.19
0.01 0.03 0.02 0.01 0.01 0.02 0.02 0.01 0.00 0.01 0.01 0.02 0.01 0.00 0.00 0.00 0.01 0.01 0.01 0.00 0.01 0.01 0.00 0.00 0.00 0.01 0.02 0.02 0.03 0.03 0.04 0.05 0.06 0.09 0.11 0.12 0.13 0.14 0.14 0.14 0.13 0.13 0.14 0.14
0.01 0.02 0.02 0.01 0.02 0.02 0.01 0.01 0.01 0.01 0.01 0.01 0.01 0.00 0.01 0.01 0.01 0.02 0.01 0.01 0.00 0.00 0.00 0.00 0.00 0.01 0.01 0.01 0.02 0.02 0.03 0.04 0.04 0.05 0.06 0.07 0.09 0.10 0.11 0.11 0.10 0.11 0.11 0.11
0.01 0.02 0.03 0.03 0.03 0.02 0.02 0.01 0.01 0.01 0.01 0.01 0.01 0.01 0.01 0.01 0.02 0.03 0.03 0.01 0.01 0.00 0.00 0.00 0.00 0.00 0.01 0.01 0.01 0.02 0.02 0.02 0.02 0.03 0.04 0.03 0.04 0.05 0.06 0.08 0.08 0.08 0.09 0.09
0.01 0.01 0.02 0.03 0.02 0.01 0.01 0.01 0.02 0.02 0.02 0.01 0.01 0.01 0.00 0.01 0.02 0.02 0.03 0.02 0.01 0.00 0.00 0.00 0.01 0.00 0.00 0.01 0.01 0.01 0.01 0.02 0.02 0.02 0.02 0.02 0.02 0.03 0.03 0.04 0.05 0.05 0.06 0.06
0.02 0.01 0.01 0.01 0.01 0.01 0.01 0.01 0.02 0.03 0.03 0.02 0.01 0.01 0.01 0.01 0.01 0.01 0.02 0.02 0.01 0.01 0.00 0.00 0.00 0.01 0.01 0.01 0.00 0.01 0.01 0.01 0.01 0.01 0.01 0.01 0.02 0.02 0.02 0.02 0.03 0.03 0.03 0.03
0.02 0.01 0.01 0.01 0.02 0.02 0.02 0.02 0.03 0.04 0.04 0.03 0.02 0.02 0.01 0.01 0.01 0.01 0.01 0.01 0.00 0.00 0.01 0.00 0.00 0.00 0.00 0.00 0.00 0.01 0.01 0.01 0.01 0.01 0.01 0.01 0.01 0.01 0.01 0.01 0.01 0.01 0.02 0.02
0.01 0.01 0.01 0.01 0.01 0.01 0.01 0.03 0.03 0.04 0.03 0.03 0.02 0.02 0.01 0.01 0.01 0.00 0.00 0.00 0.00 0.00 0.00 0.01 0.01 0.01 0.00 0.00 0.00 0.00 0.01 0.01 0.01 0.01 0.01 0.01 0.01 0.01 0.01 0.01 0.01 0.01 0.01 0.01
0.00 0.00 0.00 0.01 0.01 0.00 0.01 0.02 0.01 0.02 0.03 0.03 0.02 0.02 0.03 0.02 0.01 0.00 0.00 0.00 0.00 0.00 0.00 0.00 0.00 0.01 0.00 0.00 0.00 0.00 0.00 0.00 0.01 0.01 0.01 0.01 0.01 0.01 0.01 0.01 0.01 0.01 0.01 0.02
0.00 0.00 0.00 0.00 0.00 0.00 0.01 0.02 0.02 0.03 0.04 0.04 0.05 0.05 0.04 0.02 0.01 0.00 0.00 0.00 0.00 0.00 0.00 0.00 0.00 0.01 0.01 0.01 0.01 0.00 0.00 0.00 0.00 0.00 0.01 0.01 0.01 0.01 0.01 0.01 0.01 0.01 0.01 0.02
0.00 0.01 0.00 0.00 0.00 0.01 0.02 0.01 0.01 0.02 0.03 0.03 0.04 0.04 0.03 0.02 0.01 0.01 0.00 0.00 0.00 0.01 0.01 0.01 0.01 0.01 0.01 0.01 0.00 0.00 0.01 0.01 0.00 0.00 0.01 0.01 0.01 0.01 0.02 0.02 0.02 0.02 0.02 0.02
0.00 0.01 0.00 0.00 0.00 0.01 0.01 0.01 0.01 0.02 0.03 0.02 0.02 0.03 0.03 0.02 0.01 0.01 0.01 0.01 0.01 0.01 0.01 0.01 0.01 0.01 0.01 0.01 0.00 0.01 0.01 0.01 0.01 0.00 0.01 0.01 0.01 0.02 0.02 0.02 0.01 0.01 0.01 0.01
0.01 0.01 0.01 0.00 0.00 0.00 0.01 0.00 0.00 0.01 0.02 0.01 0.02 0.02 0.03 0.02 0.02 0.02 0.01 0.01 0.01 0.01 0.01 0.01 0.01 0.01 0.01 0.01 0.01 0.01 0.01 0.01 0.01 0.01 0.01 0.01 0.01 0.01 0.01 0.01 0.01 0.02 0.02 0.01
0.01 0.01 0.01 0.00 0.00 0.00 0.00 0.00 0.00 0.01 0.02 0.02 0.01 0.02 0.02 0.02 0.03 0.03 0.02 0.02 0.02 0.02 0.02 0.02 0.01 0.01 0.02 0.02 0.02 0.01 0.01 0.01 0.01 0.01 0.01 0.01 0.01 0.01 0.01 0.01 0.02 0.02 0.02 0.02
0.01 0.01 0.00 0.00 0.00 0.00 0.00 0.00 0.01 0.02 0.01 0.01 0.01 0.01 0.01 0.02 0.02 0.03 0.02 0.02 0.02 0.02 0.02 0.02 0.02 0.01 0.02 0.02 0.03 0.03 0.02 0.02 0.02 0.02 0.02 0.02 0.02 0.01 0.01 0.01 0.02 0.02 0.02 0.02
0.01 0.01 0.00 0.00 0.01 0.01 0.00 0.00 0.01 0.01 0.00 0.00 0.01 0.01 0.01 0.01 0.02 0.02 0.02 0.02 0.01 0.02 0.02 0.01 0.01 0.01 0.01 0.02 0.03 0.03 0.02 0.03 0.03 0.02 0.03 0.03 0.03 0.03 0.03 0.02 0.02 0.02 0.02 0.02
0.01 0.01 0.00 0.00 0.00 0.00 0.00 0.00 0.00 0.00 0.00 0.00 0.00 0.00 0.00 0.01 0.01 0.01 0.02 0.02 0.02 0.02 0.02 0.02 0.01 0.01 0.01 0.01 0.01 0.02 0.02 0.02 0.03 0.03 0.03 0.03 0.03 0.02 0.02 0.02 0.03 0.03 0.03 0.03
0.00 0.00 0.00 0.00 0.00 0.00 0.00 0.00 0.00 0.00 0.00 0.00 0.00 0.00 0.00 0.00 0.00 0.01 0.01 0.01 0.02 0.02 0.03 0.02 0.02 0.02 0.02 0.02 0.02 0.02 0.02 0.02 0.02 0.03 0.03 0.03 0.03 0.03 0.03 0.03 0.03 0.03 0.04 0.04
0.00 0.00 0.00 0.00 0.00 0.00 0.00 0.00 0.00 0.00 0.00 0.00 0.00 0.00 0.00 0.00 0.00 0.01 0.01 0.01 0.02 0.01 0.02 0.03 0.02 0.02 0.02 0.02 0.02 0.02 0.02 0.02 0.02 0.02 0.02 0.02 0.03 0.03 0.03 0.04 0.03 0.03 0.03 0.03
MSLP
1014.61 1014.66 1014.66 1014.59 1014.43 1014.16 1013.77 1013.26 1012.64 1011.94 1011.20 1010.46 1009.78 1009.20 1008.75 1008.46 1008.32 1008.31 1008.39 1008.51 1008.62 1008.69 1008.70 1008.64 1008.52 1008.39 1008.29 1008.26 1008.36 1008.60 1009.02 1009.59 1010.29 1011.08 1011.91 1012.73 1013.51 1014.21 1014.80 1015.30 1015.71 1016.06 1016.37 1016.67
1014.50 1014.37 1014.16 1013.88 1013.54 1013.14 1012.68 1012.18 1011.63 1011.05 1010.44 1009.84 1009.27 1008.77 1008.37 1008.10 1007.96 1007.96 1008.07 1008.24 1008.44 1008.61 1008.72 1008.75 1008.70 1008.59 1008.45 1008.35 1008.34 1008.45 1008.74 1009.20 1009.82 1010.57 1011.39 1012.24 1013.06 1013.81 1014.46 1014.99 1015.43 1015.79 1016.10 1016.40
1014.43 1014.11 1013.69 1013.19 1012.66 1012.13 1011.61 1011.11 1010.64 1010.17 1009.71 1009.25 1008.81 1008.40 1008.05 1007.79 1007.65 1007.63 1007.72 1007.91 1008.14 1008.37 1008.55 1008.64 1008.64 1008.55 1008.41 1008.26 1008.18 1008.21 1008.40 1008.78 1009.34 1010.05 1010.87 1011.74 1012.60 1013.40 1014.11 1014.70 1015.17 1015.56 1015.88 1016.16
1014.44 1013.93 1013.30 1012.61 1011.91 1011.26 1010.69 1010.21 1009.81 1009.46 1009.14 1008.82 1008.50 1008.17 1007.86 1007.59 1007.42 1007.35 1007.39 1007.53 1007.75 1007.98 1008.19 1008.33 1008.37 1008.32 1008.20 1008.05 1007.94 1007.93 1008.07 1008.40 1008.91 1009.60 1010.42 1011.30 1012.20 1013.04 1013.80 1014.44 1014.97 1015.39 1015.72 1016.01
1014.49 1013.82 1013.03 1012.19 1011.37 1010.64 1010.04 1009.59 1009.27 1009.03 1008.83 1008.63 1008.40 1008.13 1007.83 1007.54 1007.30 1007.14 1007.10 1007.16 1007.32 1007.53 1007.74 1007.90 1007.99 1007.98 1007.90 1007.79 1007.69 1007.68 1007.81 1008.11 1008.61 1009.28 1010.08 1010.97 1011.89 1012.77 1013.57 1014.26 1014.83 1015.29 1015.65 1015.95
1014.55 1013.78 1012.88 1011.95 1011.07 1010.31 1009.73 1009.32 1009.08 1008.94 1008.84 1008.73 1008.56 1008.31 1008.00 1007.65 1007.32 1007.05 1006.89 1006.86 1006.94 1007.10 1007.29 1007.47 1007.60 1007.65 1007.64 1007.58 1007.53 1007.55 1007.69 1007.99 1008.46 1009.11 1009.90 1010.78 1011.69 1012.59 1013.42 1014.15 1014.76 1015.26 1015.66 1015.99
1014.58 1013.76 1012.82 1011.87 1010.99 1010.26 1009.72 1009.39 1009.23 1009.18 1009.16 1009.11 1008.97 1008.71 1008.35 1007.92 1007.49 1007.11 1006.83 1006.69 1006.68 1006.78 1006.96 1007.15 1007.32 1007.44 1007.49 1007.51 1007.52 1007.58 1007.74 1008.04 1008.51 1009.12 1009.88 1010.73 1011.62 1012.51 1013.35 1014.10 1014.75 1015.30 1015.74 1016.11
1014.54 1013.73 1012.82 1011.91 1011.09 1010.44 1009.99 1009.75 1009.67 1009.69 1009.73 1009.71 1009.57 1009.28 1008.86 1008.35 1007.82 1007.33 1006.94 1006.70 1006.61 1006.67 1006.83 1007.03 1007.24 1007.42 1007.55 1007.63 1007.71 1007.81 1007.99 1008.29 1008.73 1009.31 1010.01 1010.81 1011.66 1012.52 1013.35 1014.11 1014.78 1015.37 1015.87 1016.28
1014.46 1013.69 1012.85 1012.03 1011.32 1010.78 1010.43 1010.29 1010.30 1010.39 1010.46 1010.44 1010.29 1009.96 1009.48 1008.90 1008.28 1007.70 1007.23 1006.92 1006.78 1006.80 1006.95 1007.17 1007.42 1007.65 1007.84 1007.98 1008.10 1008.24 1008.43 1008.72 1009.12 1009.64 1010.28 1011.01 1011.80 1012.61 1013.40 1014.16 1014.84 1015.46 1016.00 1016.48
1014.36 1013.67 1012.93 1012.22 1011.63 1011.21 1010.99 1010.94 1011.02 1011.15 1011.24 1011.23 1011.04 1010.68 1010.16 1009.52 1008.85 1008.22 1007.71 1007.35 1007.19 1007.20 1007.34 1007.58 1007.86 1008.12 1008.35 1008.54 1008.69 1008.84 1009.03 1009.29 1009.64 1010.11 1010.67 1011.32 1012.03 1012.78 1013.52 1014.25 1014.93 1015.57 1016.15 1016.67
1014.32 1013.71 1013.06 1012.47 1012.00 1011.70 1011.57 1011.61 1011.74 1011.90 1012.00 1011.97 1011.77 1011.38 1010.83 1010.18 1009.49 1008.85 1008.33 1007.97 1007.81 1007.82 1007.97 1008.22 1008.52 1008.80 1009.05 1009.26 1009.42 1009.58 1009.75 1009.98 1010.28 1010.67 1011.16 1011.73 1012.36 1013.03 1013.72 1014.41 1015.07 1015.71 1016.30 1016.86
1014.41 1013.86 1013.29 1012.79 1012.42 1012.20 1012.16 1012.25 1012.41 1012.58 1012.68 1012.64 1012.42 1012.02 1011.47 1010.82 1010.15 1009.54 1009.04 1008.71 1008.57 1008.59 1008.76 1009.02 1009.31 1009.60 1009.85 1010.06 1010.23 1010.37 1010.53 1010.73 1010.99 1011.33 1011.75 1012.24 1012.80 1013.40 1014.02 1014.66 1015.28 1015.90 1016.49 1017.05
1014.66 1014.14 1013.63 1013.19 1012.88 1012.72 1012.72 1012.83 1013.01 1013.17 1013.26 1013.20 1012.98 1012.59 1012.06 1011.45 1010.82 1010.26 1009.81 1009.52 1009.40 1009.44 1009.61 1009.86 1010.14 1010.42 1010.66 1010.86 1011.02 1011.16 1011.31 1011.49 1011.73 1012.03 1012.41 1012.85 1013.35 1013.88 1014.45 1015.02 1015.60 1016.17 1016.73 1017.28
1015.06 1014.55 1014.07 1013.66 1013.38 1013.24 1013.25 1013.37 1013.53 1013.68 1013.75 1013.69 1013.47 1013.10 1012.61 1012.05 1011.48 1010.97 1010.57 1010.32 1010.23 1010.27 1010.43 1010.66 1010.92 1011.17 1011.40 1011.58 1011.73 1011.87 1012.03 1012.21 1012.45 1012.75 1013.11 1013.53 1013.99 1014.47 1014.98 1015.50 1016.02 1016.53 1017.05 1017.55
1015.56 1015.05 1014.57 1014.17 1013.90 1013.77 1013.77 1013.87 1014.02 1014.15 1014.20 1014.14 1013.93 1013.59 1013.14 1012.63 1012.12 1011.67 1011.31 1011.08 1010.99 1011.03 1011.16 1011.35 1011.57 1011.79 1011.98 1012.15 1012.30 1012.45 1012.63 1012.84 1013.11 1013.43 1013.80 1014.22 1014.67 1015.13 1015.60 1016.07 1016.53 1016.98 1017.43 1017.88
1016.09 1015.58 1015.10 1014.71 1014.43 1014.29 1014.28 1014.36 1014.49 1014.60 1014.65 1014.59 1014.40 1014.09 1013.69 1013.23 1012.76 1012.34 1012.01 1011.79 1011.67 1011.67 1011.75 1011.89 1012.05 1012.22 1012.38 1012.53 1012.68 1012.86 1013.07 1013.33 1013.64 1014.01 1014.42 1014.87 1015.33 1015.78 1016.23 1016.66 1017.07 1017.47 1017.85 1018.23
1016.59 1016.09 1015.61 1015.23 1014.95 1014.81 1014.80 1014.87 1014.99 1015.09 1015.14 1015.09 1014.93 1014.65 1014.28 1013.85 1013.42 1013.01 1012.67 1012.42 1012.27 1012.20 1012.21 1012.27 1012.36 1012.47 1012.59 1012.72 1012.88 1013.08 1013.33 1013.65 1014.02 1014.44 1014.91 1015.39 1015.88 1016.35 1016.79 1017.20 1017.58 1017.93 1018.26 1018.58
1017.01 1016.53 1016.09 1015.72 1015.47 1015.34 1015.33 1015.41 1015.53 1015.65 1015.71 1015.67 1015.53 1015.28 1014.94 1014.53 1014.10 1013.68 1013.31 1013.01 1012.79 1012.64 1012.56 1012.53 1012.54 1012.59 1012.66 1012.77 1012.93 1013.14 1013.43 1013.78 1014.21 1014.68 1015.20 1015.73 1016.25 1016.75 1017.20 1017.60 1017.97 1018.29 1018.58 1018.85
1017.37 1016.93 1016.53 1016.20 1015.99 1015.89 1015.91 1016.00 1016.14 1016.27 1016.35 1016.34 1016.22 1015.99 1015.65 1015.25 1014.81 1014.36 1013.95 1013.58 1013.27 1013.03 1012.86 1012.74 1012.67 1012.64 1012.67 1012.74 1012.89 1013.10 1013.40 1013.78 1014.23 1014.75 1015.29 1015.86 1016.41 1016.93 1017.40 1017.81 1018.17 1018.48 1018.76 1019.00
1017.70 1017.31 1016.97 1016.69 1016.53 1016.47 1016.52 1016.65 1016.81 1016.96 1017.06 1017.06 1016.96 1016.74 1016.41 1015.99 1015.53 1015.04 1014.57 1014.13 1013.75 1013.42 1013.15 1012.95 1012.80 1012.71 1012.68 1012.72 1012.84 1013.04 1013.33 1013.70 1014.15 1014.67 1015.22 1015.79 1016.35 1016.89 1017.37 1017.80 1018.17 1018.49 1018.76 1018.99
1018.06 1017.73 1017.44 1017.22 1017.11 1017.10 1017.18 1017.33 1017.52 1017.68 1017.79 1017.80 1017.70 1017.48 1017.15 1016.71 1016.22 1015.69 1015.17 1014.67 1014.21 1013.81 1013.47 1013.20 1013.00 1012.86 1012.78 1012.78 1012.86 1013.02 1013.28 1013.62 1014.03 1014.52 1015.04 1015.59 1016.14 1016.67 1017.16 1017.59 1017.98 1018.31 1018.59 1018.83
1018.48 1018.20 1017.97 1017.80 1017.73 1017.75 1017.87 1018.03 1018.23 1018.40 1018.50 1018.51 1018.40 1018.16 1017.81 1017.35 1016.83 1016.26 1015.69 1015.15 1014.65 1014.20 1013.82 1013.52 1013.28 1013.10 1012.99 1012.96 1013.00 1013.12 1013.32 1013.60 1013.95 1014.37 1014.84 1015.33 1015.84 1016.34 1016.81 1017.25 1017.64 1017.98 1018.27 1018.52
1018.97 1018.74 1018.55 1018.42 1018.38 1018.42 1018.55 1018.72 1018.90 1019.06 1019.14 1019.12 1018.99 1018.72 1018.34 1017.85 1017.30 1016.71 1016.11 1015.54 1015.02 1014.55 1014.17 1013.85 1013.61 1013.43 1013.31 1013.26 1013.27 1013.34 1013.48 1013.69 1013.96 1014.30 1014.68 1015.10 1015.54 1015.98 1016.42 1016.83 1017.21 1017.55 1017.85 1018.11
1019.50 1019.29 1019.13 1019.03 1019.01 1019.06 1019.18 1019.34 1019.50 1019.62 1019.66 1019.60 1019.42 1019.12 1018.69 1018.17 1017.59 1016.98 1016.36 1015.79 1015.27 1014.82 1014.45 1014.16 1013.94 1013.78 1013.68 1013.63 1013.63 1013.67 1013.76 1013.90 1014.09 1014.33 1014.62 1014.95 1015.30 1015.67 1016.05 1016.43 1016.78 1017.10 1017.39 1017.64
1019.98 1019.80 1019.65 1019.57 1019.56 1019.62 1019.72 1019.85 1019.97 1020.04 1020.04 1019.92 1019.69 1019.33 1018.86 1018.30 1017.69 1017.05 1016.44 1015.87 1015.37 1014.96 1014.63 1014.38 1014.21 1014.11 1014.04 1014.02 1014.02 1014.06 1014.11 1014.20 1014.32 1014.48 1014.68 1014.91 1015.18 1015.47 1015.77 1016.08 1016.39 1016.67 1016.93 1017.15
1020.32 1020.17 1020.05 1019.99 1019.99 1020.04 1020.13 1020.23 1020.31 1020.33 1020.26 1020.08 1019.79 1019.37 1018.85 1018.25 1017.61 1016.96 1016.34 1015.79 1015.32 1014.94 1014.66 1014.48 1014.37 1014.32 1014.32 1014.34 1014.38 1014.43 1014.48 1014.54 1014.62 1014.72 1014.84 1014.99 1015.17 1015.38 1015.61 1015.84 1016.08 1016.31 1016.52 1016.70
Thickness
5485 5480 5476 5479 5484 5490 5493 5496 5500 5510 5522 5529 5534 5542 5553 5563 5570 5577 5585 5594 5603 5613 5623 5631 5638 5645 5649 5653 5657 5662 5665 5668 5668 5667 5667 5668 5669 5669 5669 5670 5670 5669 5669 5668
5477 5476 5480 5485 5489 5492 5494 5496 5502 5511 5522 5528 5530 5538 5550 5560 5567 5575 5582 5590 5599 5608 5617 5625 5633 5637 5643 5648 5651 5655 5659 5662 5663 5665 5666 5665 5665 5664 5664 5664 5664 5665 5664 5663
5475 5477 5484 5487 5489 5492 5493 5494 5501 5509 5517 5524 5528 5536 5545 5556 5564 5573 5579 5585 5594 5603 5611 5619 5626 5631 5636 5641 5646 5650 5653 5656 5658 5660 5659 5658 5657 5656 5656 5657 5658 5658 5658 5657
5477 5481 5483 5486 5488 5490 5491 5497 5504 5510 5508 5509 5519 5523 5539 5548 5558 5568 5574 5580 5587 5596 5605 5612 5619 5625 5629 5634 5639 5643 5646 5649 5651 5653 5653 5653 5653 5653 5654 5654 5653 5652 5651 5650
5477 5479 5482 5484 5487 5491 5493 5497 5501 5505 5504 5503 5510 5517 5531 5542 5554 5563 5570 5576 5583 5589 5597 5605 5612 5619 5624 5628 5633 5636 5638 5641 5644 5645 5647 5647 5647 5647 5648 5647 5645 5644 5644 5644
5478 5481 5482 5484 5488 5492 5494 5495 5495 5492 5493 5498 5505 5511 5523 5535 5547 5557 5566 5571 5576 5582 5590 5598 5605 5611 5616 5620 5625 5628 5630 5633 5635 5636 5639 5640 5639 5639 5639 5638 5637 5637 5637 5636
5473 5479 5483 5486 5487 5489 5490 5483 5476 5480 5478 5491 5504 5509 5520 5537 5545 5552 5560 5566 5571 5576 5583 5590 5596 5602 5607 5612 5616 5618 5622 5623 5625 5627 5630 5631 5632 5632 5632 5631 5630 5630 5629 5629
5467 5469 5480 5485 5486 5486 5486 5484 5477 5479 5480 5489 5502 5507 5521 5534 5540 5548 5553 5559 5564 5569 5575 5582 5587 5592 5597 5602 5606 5609 5611 5613 5616 5618 5619 5621 5623 5624 5624 5623 5622 5622 5622 5622
5469 5471 5483 5487 5489 5490 5488 5481 5484 5475 5475 5482 5495 5506 5520 5534 5538 5541 5545 5551 5556 5560 5566 5571 5577 5582 5587 5592 5595 5598 5601 5603 5604 5606 5608 5609 5612 5614 5614 5614 5614 5614 5614 5614
5476 5475 5483 5487 5492 5491 5491 5488 5481 5480 5481 5486 5496 5501 5511 5525 5531 5534 5537 5541 5547 5552 5556 5561 5566 5570 5575 5580 5584 5586 5588 5590 5592 5594 5596 5598 5600 5602 5604 5604 5603 5603 5603 5603
5480 5477 5480 5486 5488 5488 5489 5489 5485 5477 5479 5482 5490 5505 5518 5519 5525 5526 5530 5534 5538 5542 5547 5551 5555 5559 5564 5567 5571 5574 5576 5578 5579 5581 5583 5585 5587 5588 5590 5592 5592 5593 5593 5592
5482 5475 5474 5482 5489 5492 5492 5492 5487 5484 5480 5475 5480 5499 5519 5517 5519 5522 5524 5528 5531 5535 5538 5542 5545 5549 5553 5557 5560 5562 5564 5566 5568 5569 5571 5573 5575 5576 5577 5578 5580 5581 5581 5581
5487 5480 5476 5484 5488 5490 5491 5492 5491 5487 5480 5476 5480 5500 5515 5512 5514 5516 5517 5519 5522 5526 5530 5533 5536 5539 5542 5545 5548 5551 5553 5554 5555 5557 5559 5561 5563 5564 5565 5566 5567 5569 5569 5569
5492 5481 5480 5485 5489 5489 5491 5494 5492 5489 5482 5483 5489 5500 5510 5509 5509 5509 5510 5512 5514 5517 5520 5523 5525 5528 5531 5534 5536 5538 5540 5541 5543 5545 5547 5549 5551 5552 5552 5553 5554 5555 5555 5555
5489 5485 5485 5486 5491 5492 5493 5495 5495 5495 5494 5491 5498 5499 5504 5503 5502 5502 5503 5505 5508 5511 5512 5513 5514 5516 5519 5521 5523 5525 5527 5529 5530 5532 5534 5536 5537 5538 5539 5540 5541 5541 5542 5542
5482 5484 5488 5490 5491 5491 5491 5494 5495 5495 5495 5496 5498 5499 5499 5497 5497 5497 5496 5498 5500 5500 5502 5503 5504 5505 5506 5508 5510 5512 5514 5516 5518 5519 5520 5522 5523 5524 5525 5527 5528 5528 5529 5529
5475 5480 5483 5483 5485 5493 5491 5494 5494 5494 5493 5494 5495 5496 5494 5493 5492 5488 5487 5487 5487 5488 5490 5492 5493 5494 5495 5495 5497 5499 5502 5504 5505 5506 5508 5509 5510 5511 5512 5514 5515 5516 5517 5517
5474 5476 5475 5477 5483 5486 5495 5494 5493 5493 5492 5489 5489 5488 5487 5485 5482 5480 5477 5476 5475 5476 5478 5480 5482 5483 5483 5484 5485 5488 5490 5492 5494 5495 5496 5497 5499 5500 5501 5502 5503 5505 5505 5505
5472 5475 5471 5470 5470 5479 5491 5490 5487 5488 5489 5485 5483 5481 5479 5478 5479 5475 5471 5468 5466 5466 5468 5468 5469 5471 5472 5473 5475 5477 5479 5480 5482 5484 5485 5487 5489 5490 5491 5492 5493 5494 5494 5494
5469 5468 5466 5465 5472 5476 5490 5487 5485 5485 5483 5479 5477 5473 5470 5470 5469 5468 5463 5459 5458 5458 5458 5459 5459 5460 5461 5462 5464 5466 5467 5469 5470 5473 5475 5477 5479 5480 5481 5482 5483 5483 5483 5484
5469 5467 5462 5461 5463 5474 5480 5480 5481 5477 5478 5472 5468 5465 5461 5457 5455 5454 5452 5451 5449 5449 5449 5449 5449 5449 5450 5451 5453 5455 5456 5457 5460 5462 5464 5466 5468 5470 5471 5472 5473 5473 5473 5473
5470 5467 5466 5461 5461 5470 5477 5474 5471 5470 5465 5462 5459 5456 5452 5449 5447 5445 5443 5442 5441 5440 5440 5440 5439 5440 5440 5441 5442 5444 5445 5447 5450 5452 5454 5456 5458 5460 5462 5463 5463 5463 5463 5462
5466 5470 5469 5469 5475 5474 5470 5469 5466 5460 5457 5453 5449 5447 5444 5441 5439 5437 5435 5433 5432 5432 5431 5430 5429 5430 5431 5431 5431 5433 5435 5437 5440 5442 5443 5445 5447 5449 5452 5453 5453 5453 5452 5452
5465 5466 5464 5464 5469 5467 5464 5461 5457 5453 5450 5446 5442 5439 5435 5432 5430 5427 5425 5424 5423 5423 5422 5421 5420 5420 5421 5421 5422 5423 5426 5428 5430 5431 5433 5435 5437 5439 5441 5442 5443 5444 5444 5444
5468 5462 5461 5462 5465 5462 5461 5456 5451 5446 5442 5438 5434 5431 5427 5423 5420 5418 5415 5414 5413 5412 5411 5411 5410 5410 5411 5411 5412 5414 5416 5418 5419 5421 5422 5425 5427 5429 5430 5432 5433 5434 5436 5437
5463 5463 5463 5467 5465 5459 5457 5453 5446 5440 5435 5431 5426 5422 5418 5414 5411 5408 5406 5404 5402 5401 5401 5400 5400 5400 5400 5401 5402 5403 5406 5408 5409 5411 5413 5415 5417 5418 5420 5422 5423 5424 5426 5427